Beauvechain, Belgium

2:49 PM CEST on March 30, 2017 (GMT +0200)
Beauvechain Air Base

Weather History for EBBE - February, 2013

Change the Weather History Date:

Tuesday, February 12, 2013

  Actual Average Record
Temperature  
Mean Temperature 26 °F -  
Max Temperature 30 °F 44 °F 57 °F (2001)
Min Temperature 23 °F 37 °F 14 °F (1999)
Degree Days  
Heating Degree Days 38    
Moisture  
Dew Point 23 °F    
Average Humidity 77    
Maximum Humidity 93    
Minimum Humidity 59    
Precipitation  
Precipitation 0.00 in - - ()
Sea Level Pressure  
Sea Level Pressure 29.88 in    
Wind  
Wind Speed 7 mph ()    
Max Wind Speed 10 mph    
Max Gust Speed -    
Visibility 4.9 miles    
Events Snow    
Averages and records for this station are not official NWS values.
T = Trace of Precipitation, MM = Missing Value Source: Averaged Metar Reports

Daily Weather History Graph

Daily Weather History Graph

Search for Another Location

Airport or City:

Trip Planner

Search our weather history database for the weather conditions in past years. The results will help you decide how hot, cold, wet, or windy it might be!

Date:

Astronomy

Feb. 12, 2013 Rise Set
Actual Time 7:58 AM CET 5:52 PM CET
Civil Twilight 7:24 AM CET 6:26 PM CET
Nautical Twilight 6:45 AM CET 7:05 PM CET
Astronomical Twilight 6:07 AM CET 7:43 PM CET
Moon 8:26 AM CET (2/12) 9:01 PM CET (2/12)
Length of Visible Light 11h 02m
Length of Day
9h 54m
Waxing Crescent, 6% of the Moon is Illuminated
Feb 12
Waxing Crescent
Feb 17
First Quarter
Feb 25
Full
Mar 4
Last Quarter
Mar 11
New

Hourly Weather History & Observations

Time (CET) Temp. Windchill Dew Point Humidity Pressure Visibility Wind Dir Wind Speed Gust Speed Precip Events Conditions
12:05 AM 30.2 °F 24.3 °F 28.4 °F 93% 29.68 in 5.0 mi ENE 5.8 mph - N/A Snow Light Snow
12:25 AM 30.2 °F 22.6 °F 28.4 °F 93% 29.71 in 6.2 mi ENE 8.1 mph - N/A Snow Light Snow
12:28 AM 30.2 °F 22.6 °F 28.4 °F 93% 29.71 in 6.2 mi ENE 8.1 mph - N/A Snow Light Snow Grains
1:00 AM 31 °F - 27 °F 77% 29.75 in 9 mi ENE 6.7 mph - - Snow Snow
1:01 AM 30.2 °F 23.4 °F 26.6 °F 86% 29.71 in 6.2 mi East 6.9 mph - N/A   Overcast
1:25 AM 30.2 °F 23.4 °F 24.8 °F 80% 29.71 in 6.2 mi East 6.9 mph - N/A   Overcast
2:25 AM 30.2 °F 21.9 °F 23.0 °F 75% 29.71 in 6.2 mi ENE 9.2 mph - N/A   Mostly Cloudy
3:25 AM 26.6 °F 18.2 °F 21.2 °F 80% 29.74 in 6.2 mi NE 8.1 mph - N/A   Clear
4:00 AM 26 °F - 22 °F 77% 29.80 in 6 mi NE 8.9 mph - -   Clear
4:25 AM 26.6 °F 18.2 °F 21.2 °F 80% 29.77 in 5.6 mi ENE 8.1 mph - N/A   Clear
5:18 AM 24.8 °F 16.1 °F 21.2 °F 86% 29.77 in 4.3 mi ENE 8.1 mph - N/A   Clear
5:25 AM 24.8 °F 16.1 °F 21.2 °F 86% 29.77 in 4.3 mi ENE 8.1 mph - N/A   Clear
7:00 AM 24 °F - 20 °F 80% 29.85 in 4 mi ENE 8.9 mph - -  
8:25 AM 23.0 °F 14.7 °F 19.4 °F 86% 29.86 in 3.7 mi NE 6.9 mph - N/A   Partly Cloudy
9:25 AM 24.8 °F 15.3 °F 23.0 °F 93% 29.86 in 3.7 mi NE 9.2 mph - N/A   Mostly Cloudy
9:50 AM 26.6 °F 18.2 °F 23.0 °F 86% 29.86 in 3.7 mi ENE 8.1 mph - N/A   Mostly Cloudy
10:00 AM 26 °F - 23 °F 83% 29.89 in 4 mi ENE 8.9 mph - -   Mostly Cloudy
10:25 AM 28.4 °F 19.7 °F 23.0 °F 80% 29.89 in 4.3 mi ENE 9.2 mph - N/A   Mostly Cloudy
11:18 AM 28.4 °F 19.7 °F 23.0 °F 80% 29.92 in 5.6 mi NE 9.2 mph - N/A   Mostly Cloudy
11:25 AM 28.4 °F 19.7 °F 23.0 °F 80% 29.92 in 5.0 mi NE 9.2 mph - N/A   Mostly Cloudy
12:25 PM 30.2 °F 21.9 °F 23.0 °F 75% 29.92 in 5.6 mi NE 9.2 mph - N/A   Mostly Cloudy
1:00 PM 30 °F - 23 °F 66% 30.00 in 6 mi NE 8.9 mph - -   Overcast
1:25 PM 30.2 °F 21.3 °F 23.0 °F 75% 29.95 in 5.6 mi NE 10.4 mph - N/A   Mostly Cloudy
2:25 PM 30.2 °F 21.3 °F 23.0 °F 75% 29.95 in 6.2 mi ENE 10.4 mph - N/A   Mostly Cloudy
3:25 PM 30.2 °F 23.4 °F 23.0 °F 75% 29.95 in 5.0 mi NE 6.9 mph - N/A   Mostly Cloudy
4:00 PM 30 °F - 22 °F 64% 30.00 in 5 mi NE 8.9 mph - -   Overcast
4:25 PM 30.2 °F 23.4 °F 21.2 °F 69% 29.95 in 5.6 mi ENE 6.9 mph - N/A   Mostly Cloudy
5:25 PM 30.2 °F 24.3 °F 21.2 °F 69% 29.95 in 3.7 mi NE 5.8 mph - N/A   Mostly Cloudy
6:07 PM 30.2 °F 23.4 °F 21.2 °F 69% 29.95 in 3.1 mi NE 6.9 mph - N/A   Mostly Cloudy
6:25 PM 30.2 °F 23.4 °F 21.2 °F 69% 29.95 in 3.1 mi ENE 6.9 mph - N/A   Mostly Cloudy
7:00 PM 29 °F - 20 °F 59% 30.01 in 3 mi ENE 4.5 mph - -   Overcast
7:25 PM 30.2 °F 23.4 °F 19.4 °F 64% 29.98 in 3.7 mi ENE 6.9 mph - N/A   Mostly Cloudy
8:25 PM 30.2 °F 24.3 °F 21.2 °F 69% 29.98 in 4.3 mi ENE 5.8 mph - N/A   Mostly Cloudy
9:25 PM 30.2 °F 25.4 °F 21.2 °F 69% 30.04 in 4.3 mi ENE 4.6 mph - N/A   Mostly Cloudy
10:00 PM 29 °F - 20 °F 60% 30.07 in 4 mi ENE 4.5 mph - -   Mostly Cloudy
10:25 PM 30.2 °F 24.3 °F 19.4 °F 64% 30.06 in 3.7 mi NE 5.8 mph - N/A   Mostly Cloudy
11:25 PM 30.2 °F - 21.2 °F 69% 30.06 in 3.7 mi Variable 1.2 mph - N/A   Overcast